Wind_Speed
19 18 17 16 15 14 14 13 13 13 13 12 12 12 12 11 11 12 12 12 12 13 13 13 14 14 14 14 14 15 15 15 16 16 16 16 16 16 17 17 17 16 16
20 19 18 18 17 17 16 15 15 14 14 13 13 13 13 12 12 12 13 14 14 14 15 15 16 16 16 16 16 16 17 17 17 18 18 18 18 18 18 18 18 18 18
21 21 20 20 19 19 18 18 17 16 15 15 15 14 14 14 14 14 15 15 15 16 16 17 17 17 17 17 18 18 18 18 18 18 18 18 18 18 19 19 19 19 19
23 22 22 22 21 21 20 19 19 18 18 17 17 17 17 16 16 17 17 17 17 18 18 18 19 19 19 19 20 20 20 20 20 20 20 19 19 19 19 20 20 20 20
24 24 23 23 22 21 21 20 20 20 19 19 19 19 18 19 19 19 19 19 19 19 19 20 20 21 21 21 21 22 22 21 21 21 21 20 20 21 21 21 22 22 23
25 24 23 23 23 22 22 21 21 21 21 20 20 20 20 20 20 20 20 20 21 21 21 21 22 22 23 23 23 23 23 22 22 22 22 21 22 22 23 23 24 24 24
26 25 24 24 24 24 23 22 22 22 22 22 22 22 21 21 21 21 21 21 22 22 22 22 23 23 24 24 24 24 24 23 23 24 24 24 25 25 25 25 26 26 27
27 26 25 25 25 25 24 24 24 23 23 23 23 23 23 22 22 22 22 23 23 23 23 23 23 24 24 24 25 25 25 25 26 26 26 26 27 27 27 27 28 28 29
29 28 27 27 26 26 25 25 25 24 24 24 24 24 24 24 24 24 24 24 24 24 24 24 24 24 25 25 25 26 26 27 28 28 28 28 28 29 29 29 29 30 30
30 29 28 28 27 26 26 26 25 25 25 25 25 25 25 25 25 25 25 25 25 25 25 25 25 25 25 25 26 26 27 27 28 29 29 29 29 29 30 30 31 30 30
31 30 29 28 28 27 27 26 26 26 26 26 26 26 26 26 26 26 26 26 25 25 25 25 25 25 26 26 27 27 27 28 28 28 28 29 29 30 30 31 31 31 31
32 32 31 30 29 29 28 27 27 27 26 26 26 27 26 26 26 26 27 26 26 26 26 26 26 27 27 27 28 28 28 28 29 29 29 29 30 31 31 32 33 33 34
34 33 32 31 30 30 29 29 28 28 27 27 27 27 27 27 27 27 27 27 28 28 28 28 28 28 28 28 29 29 29 29 30 30 31 31 31 32 32 33 34 35 36
34 33 32 32 31 31 30 30 30 29 28 28 28 28 28 28 28 28 28 29 29 29 30 30 30 30 30 30 30 29 29 30 31 31 32 32 33 34 35 35 36 37 38
34 33 33 33 33 32 31 31 31 30 29 29 29 29 29 29 29 29 29 29 30 30 30 30 31 31 31 31 31 31 32 32 32 33 33 34 34 35 36 37 38 38 39
34 34 34 34 33 33 32 32 32 31 31 31 31 30 30 30 30 30 30 30 30 30 31 31 31 31 31 31 32 33 33 34 34 34 35 36 36 37 37 38 40 40 41
34 34 34 34 33 33 32 32 32 32 32 32 32 32 32 31 31 31 31 31 31 31 31 32 32 32 32 32 33 34 34 35 35 36 37 37 38 39 39 40 41 42 43
35 34 34 34 33 33 33 33 33 33 33 33 33 33 33 32 32 32 32 32 32 32 32 33 33 33 33 34 34 35 35 36 37 37 38 39 40 41 42 43 43 44 44
35 34 34 34 34 33 33 33 33 33 33 33 33 33 33 32 32 33 33 32 32 33 33 33 33 34 34 35 35 36 37 37 37 38 39 40 41 43 44 44 45 46 46
35 35 34 34 34 34 33 33 33 33 33 33 33 33 33 33 33 33 33 33 33 34 34 34 34 35 35 36 36 37 37 38 39 40 41 42 43 44 45 46 47 47 48
35 34 34 34 34 34 34 34 34 33 33 33 33 33 33 33 33 33 33 34 34 34 35 35 35 36 37 37 38 38 39 39 40 41 42 43 44 45 46 47 47 48 49
35 35 35 34 34 34 34 34 34 33 33 33 33 33 33 33 33 34 34 35 35 35 35 36 36 37 38 39 39 40 40 40 40 41 42 44 45 46 47 48 48 49 50
36 36 36 35 34 34 34 34 34 33 33 33 33 33 33 34 34 35 35 35 36 36 36 37 37 38 39 40 41 41 41 41 41 41 43 44 46 47 48 48 49 50 51
37 36 36 36 35 34 34 34 34 33 33 33 33 33 34 35 35 35 35 36 36 37 37 38 39 40 40 41 41 42 42 43 43 43 43 45 46 47 47 48 49 50 52
38 37 36 36 35 35 34 33 33 33 33 33 34 34 34 35 35 36 36 36 37 37 38 39 40 41 41 42 42 42 42 43 44 45 45 44 45 47 48 49 49 50 51
38 38 37 36 35 35 34 34 33 33 33 34 34 34 35 35 36 36 36 37 37 38 38 39 40 41 41 41 42 42 43 44 45 46 46 45 46 46 47 48 49 50 50
Wind_Direction
244 244 245 245 245 245 245 247 249 251 253 256 258 260 262 264 266 266 268 270 273 274 275 278 280 285 284 284 285 288 290 289 288 289 291 290 288 289 289 288 286 286 287
245 246 247 247 247 248 249 249 251 253 255 257 258 260 261 262 265 267 269 270 272 274 275 277 280 283 284 285 284 286 287 289 289 290 291 290 286 286 287 288 288 285 286
245 246 247 248 249 250 251 252 253 254 255 257 258 259 261 263 265 267 270 271 272 274 276 278 279 281 281 282 284 285 286 288 288 288 289 290 287 285 286 287 288 288 287
245 246 246 247 249 250 252 253 254 255 257 258 259 261 262 263 265 267 269 271 272 274 275 276 277 278 279 280 282 283 284 285 286 286 287 288 288 288 289 289 287 287 287
246 245 246 246 247 248 250 253 255 256 258 259 260 262 263 265 267 269 270 271 271 272 273 274 275 277 278 279 281 282 282 282 283 285 286 286 288 289 289 288 288 287 286
244 243 243 244 246 248 250 253 255 257 258 260 261 263 265 266 268 270 271 271 271 272 273 274 275 276 277 279 280 281 281 282 282 284 284 285 287 289 289 288 288 288 288
242 242 243 244 247 249 252 254 256 258 259 260 262 264 265 267 268 269 270 270 271 272 274 275 275 276 277 278 279 280 280 281 282 282 283 284 285 286 288 288 288 287 288
242 243 244 245 248 250 252 255 256 258 259 260 262 264 265 267 268 269 269 269 270 272 274 275 276 277 278 278 279 279 279 280 281 283 284 284 284 284 285 286 286 286 287
242 243 244 246 248 250 252 255 256 257 258 259 261 263 265 266 268 267 268 269 270 272 273 275 276 278 279 280 280 280 280 281 281 282 283 283 283 283 284 284 285 286 286
242 243 245 246 249 251 253 254 256 257 258 259 261 263 264 266 268 267 267 269 270 272 274 276 277 279 280 281 281 281 281 282 282 283 283 282 282 283 283 284 284 285 285
242 243 245 247 249 251 253 254 255 256 257 259 261 263 264 266 267 267 268 269 270 272 274 276 277 279 280 280 281 282 282 284 284 283 283 283 283 283 283 284 284 285 285
243 244 246 247 249 250 252 254 255 256 258 260 261 262 263 265 266 267 268 269 271 272 274 275 277 278 279 280 280 281 282 283 283 283 283 283 284 283 283 284 285 285 285
243 245 246 247 249 250 252 253 255 256 258 259 261 263 263 265 266 267 267 269 271 272 274 275 276 278 279 280 281 282 282 283 283 283 283 284 284 285 285 285 284 285 285
243 244 246 247 248 250 251 253 254 257 258 260 261 262 264 266 266 267 268 270 271 273 274 275 276 277 278 279 281 282 283 284 284 284 284 284 285 285 286 286 285 285 285
242 244 245 246 248 249 251 253 254 256 258 260 261 263 264 265 266 267 268 270 271 273 274 275 276 277 278 279 280 282 283 284 285 285 285 285 285 285 286 285 285 286 286
241 242 244 246 248 250 252 253 254 255 257 259 261 263 264 265 265 267 268 269 271 273 274 275 276 277 278 279 281 282 283 284 285 286 286 286 286 286 286 286 286 286 286
241 243 245 246 248 250 252 253 255 256 257 259 261 262 263 264 265 266 267 269 271 272 274 275 276 277 278 279 281 283 284 286 286 286 286 286 286 287 287 287 287 287 286
241 243 245 246 248 250 252 253 255 256 258 259 261 262 263 264 265 267 268 269 271 272 274 275 276 277 278 280 282 283 285 286 287 287 286 287 287 288 289 289 288 287 286
241 242 244 246 248 250 252 253 254 257 258 260 261 262 263 264 266 267 268 269 271 273 274 275 276 277 278 280 282 284 285 286 287 287 288 288 289 290 290 289 288 288 287
241 243 244 247 249 250 252 253 255 257 259 260 261 261 262 264 265 267 268 269 271 273 274 276 277 278 280 281 282 284 285 286 287 288 289 290 290 291 291 290 288 288 287
242 243 245 246 248 250 252 253 255 257 258 259 260 261 263 265 266 268 269 270 272 273 275 276 277 279 280 282 283 284 285 286 288 289 290 291 292 292 291 290 289 288 288
242 244 245 246 248 250 252 253 255 256 258 259 261 263 264 266 267 269 270 271 273 274 275 276 278 280 281 282 283 284 285 286 287 289 290 292 292 292 291 290 290 289 289
242 244 245 246 248 250 251 253 255 257 259 260 262 263 265 267 268 270 271 272 273 274 276 277 279 280 282 283 284 285 285 286 286 288 290 292 293 293 291 290 290 290 289
242 244 245 246 248 249 251 253 256 257 259 261 262 263 265 267 269 270 272 273 274 275 276 278 280 281 283 284 285 286 287 288 288 289 291 293 294 293 292 291 291 290 290
242 243 245 246 247 249 252 254 256 257 259 261 263 264 266 268 269 271 272 273 274 276 278 280 281 283 284 285 286 287 288 290 291 291 293 294 294 294 293 292 292 292 291
242 243 245 246 247 249 251 254 256 258 259 261 263 265 267 268 270 272 273 273 274 276 279 281 283 284 285 286 287 287 289 291 292 293 294 295 295 296 295 294 294 293 293
Height
5845 5847 5848 5849 5851 5852 5853 5854 5855 5856 5857 5858 5859 5859 5860 5860 5861 5862 5862 5863 5863 5864 5865 5865 5865 5865 5866 5866 5866 5866 5865 5865 5865 5865 5865 5864 5864 5864 5863 5863 5863 5862 5862
5842 5844 5845 5847 5848 5849 5850 5852 5853 5854 5855 5855 5856 5857 5858 5858 5859 5859 5860 5861 5861 5862 5862 5862 5863 5863 5863 5863 5863 5863 5863 5863 5863 5862 5862 5861 5861 5861 5861 5860 5860 5860 5859
5839 5841 5842 5843 5845 5846 5847 5849 5850 5851 5852 5853 5854 5854 5855 5856 5856 5857 5858 5858 5858 5859 5859 5860 5860 5860 5860 5861 5860 5860 5860 5860 5860 5860 5859 5859 5858 5858 5858 5857 5857 5857 5856
5835 5837 5838 5840 5841 5842 5844 5845 5846 5848 5849 5850 5851 5851 5852 5853 5854 5854 5854 5855 5855 5856 5856 5856 5857 5857 5857 5857 5857 5857 5857 5857 5857 5856 5856 5856 5855 5855 5854 5854 5854 5853 5853
5831 5833 5834 5836 5837 5839 5840 5842 5843 5844 5845 5846 5847 5848 5849 5850 5850 5851 5851 5851 5852 5852 5853 5853 5853 5853 5854 5854 5854 5854 5854 5853 5853 5853 5853 5852 5852 5851 5851 5850 5850 5849 5849
5826 5828 5830 5832 5833 5835 5836 5838 5839 5840 5841 5842 5843 5844 5845 5846 5847 5847 5847 5848 5848 5849 5849 5849 5849 5849 5850 5850 5850 5850 5850 5849 5849 5849 5849 5848 5848 5847 5847 5846 5846 5845 5845
5822 5824 5826 5828 5829 5831 5832 5834 5835 5836 5837 5838 5839 5840 5841 5842 5842 5843 5844 5844 5844 5844 5845 5845 5845 5845 5845 5845 5845 5845 5845 5845 5845 5845 5845 5844 5844 5843 5842 5842 5841 5841 5840
5817 5819 5821 5823 5825 5826 5828 5830 5831 5832 5833 5834 5835 5836 5837 5837 5838 5839 5839 5840 5840 5840 5840 5841 5841 5841 5841 5841 5841 5841 5841 5840 5840 5840 5840 5839 5839 5838 5838 5837 5836 5836 5835
5812 5814 5816 5818 5820 5822 5823 5825 5826 5827 5828 5829 5830 5831 5832 5833 5833 5834 5835 5835 5835 5836 5836 5836 5836 5836 5836 5836 5836 5836 5836 5835 5835 5835 5834 5834 5833 5833 5832 5831 5831 5830 5829
5807 5809 5811 5813 5815 5817 5819 5820 5821 5823 5824 5825 5825 5826 5827 5828 5828 5829 5830 5830 5831 5831 5831 5831 5831 5831 5831 5831 5831 5831 5830 5830 5830 5829 5829 5828 5828 5827 5826 5825 5825 5824 5823
5801 5804 5806 5808 5810 5812 5813 5815 5816 5818 5819 5820 5820 5821 5822 5823 5823 5824 5824 5825 5826 5826 5826 5826 5826 5826 5826 5826 5826 5825 5825 5824 5824 5823 5823 5822 5821 5821 5820 5819 5818 5818 5817
5796 5798 5800 5802 5804 5806 5808 5810 5811 5812 5813 5814 5815 5816 5817 5817 5818 5819 5819 5820 5820 5821 5821 5821 5821 5821 5821 5820 5820 5820 5819 5819 5818 5817 5817 5816 5815 5814 5814 5813 5812 5811 5810
5789 5792 5794 5796 5798 5800 5802 5804 5805 5807 5808 5809 5810 5811 5811 5812 5813 5813 5814 5814 5815 5815 5815 5815 5815 5815 5815 5815 5814 5814 5813 5812 5812 5811 5810 5809 5809 5808 5807 5806 5805 5803 5802
5783 5785 5788 5790 5792 5794 5796 5798 5800 5801 5802 5803 5804 5805 5806 5806 5807 5808 5808 5808 5809 5809 5809 5809 5809 5809 5809 5809 5808 5808 5807 5806 5805 5804 5803 5803 5802 5801 5799 5798 5797 5796 5794
5776 5779 5781 5784 5786 5788 5790 5792 5793 5795 5796 5797 5798 5799 5800 5800 5801 5802 5802 5803 5803 5803 5803 5803 5803 5803 5803 5802 5802 5801 5800 5799 5798 5797 5797 5795 5794 5793 5792 5790 5789 5788 5786
5769 5772 5775 5777 5779 5781 5783 5785 5787 5788 5790 5791 5792 5793 5794 5794 5795 5796 5796 5796 5797 5797 5797 5797 5797 5796 5796 5796 5795 5794 5793 5792 5791 5790 5789 5788 5786 5785 5783 5782 5780 5779 5777
5762 5765 5768 5770 5772 5774 5776 5778 5780 5782 5783 5784 5785 5786 5787 5788 5788 5789 5790 5790 5790 5790 5790 5790 5790 5790 5789 5789 5788 5787 5786 5785 5783 5782 5781 5779 5778 5776 5774 5773 5771 5769 5767
5755 5758 5760 5763 5765 5768 5770 5771 5773 5775 5776 5777 5778 5779 5780 5781 5782 5782 5783 5783 5783 5783 5783 5783 5783 5783 5782 5781 5781 5780 5778 5777 5775 5774 5772 5770 5769 5767 5765 5762 5760 5758 5756
5748 5751 5753 5756 5758 5761 5763 5765 5766 5768 5769 5770 5771 5772 5773 5774 5775 5776 5776 5776 5776 5776 5776 5776 5776 5775 5775 5774 5773 5772 5770 5769 5767 5765 5763 5761 5759 5757 5754 5752 5749 5747 5745
5741 5744 5746 5749 5751 5753 5756 5757 5759 5761 5762 5763 5764 5765 5766 5767 5768 5768 5769 5769 5769 5769 5769 5768 5768 5767 5766 5766 5765 5764 5762 5760 5758 5756 5754 5751 5749 5746 5743 5741 5738 5736 5733
5734 5737 5739 5742 5744 5746 5748 5750 5752 5754 5755 5756 5757 5758 5759 5760 5760 5761 5761 5762 5762 5761 5761 5761 5760 5759 5758 5757 5756 5755 5754 5751 5749 5746 5744 5741 5738 5735 5732 5729 5726 5723 5721
5726 5729 5732 5734 5737 5739 5741 5743 5745 5746 5748 5749 5750 5751 5752 5753 5753 5753 5754 5754 5754 5753 5753 5753 5752 5751 5750 5748 5747 5745 5744 5744 5740 5737 5734 5731 5728 5724 5720 5717 5714 5711 5708
5719 5722 5724 5727 5729 5732 5734 5736 5738 5739 5741 5742 5743 5744 5744 5745 5745 5745 5746 5746 5745 5745 5745 5744 5743 5742 5741 5739 5736 5735 5733 5732 5731 5729 5725 5721 5716 5711 5707 5704 5701 5697 5695
5711 5714 5717 5719 5722 5724 5726 5728 5731 5732 5734 5735 5736 5736 5737 5737 5737 5737 5737 5737 5737 5736 5736 5735 5734 5732 5731 5729 5727 5724 5722 5720 5718 5718 5716 5711 5705 5700 5695 5691 5688 5684 5681
5702 5706 5709 5712 5714 5717 5719 5721 5723 5725 5726 5727 5728 5728 5729 5729 5729 5729 5729 5728 5728 5727 5726 5725 5724 5722 5720 5718 5716 5714 5712 5709 5706 5704 5703 5700 5695 5689 5684 5679 5675 5671 5667
5694 5697 5701 5704 5707 5710 5712 5714 5716 5717 5719 5719 5720 5721 5721 5721 5721 5721 5720 5720 5719 5718 5717 5716 5714 5712 5710 5708 5706 5703 5701 5699 5696 5692 5690 5688 5684 5679 5673 5668 5663 5658 5654